RADUGA 6 [-]

Last updated on June 26, 2019, 3:46 a.m. UTC

1 11708U 80016A   19176.66009323  .00000000  00000-0  00000+0 0  9994
2 11708  11.5730 315.1826 0000743 353.4369 268.6506  1.00203171 96596
UTC
Height (km)
Latitude
Longitude
Inclination
Orbital Period
UTC large
Height (km)
Speed (km/s)
/
Latitude / Longitude
Inclination (degrees)
Orbital Period (minutes)
Azimuth
Elevation
Range (km)
Doppler Factor
iOS Compass Heading
iOS Angle

Next 30 passes for location: Hong Kong

Rise time Rise Azimuth (degrees) Set time Set Azimuth (degrees) Duration Max altitude (degrees)

No matching passes for this satellites